ICE52 BIRK-BIAR

Flight info

Callsign ICE52
Flight time 0h 55m
Altitude 17000
Route GILTU
Aircraft DH8D/M-SDE2E3FGRY/H

Departure

Time 2026-05-09 15:29
Airport Reykjavík Domestic Airport (BIRK)

Arrival

Time 2026-05-09 16:24
Airport Akureyri International Airport (BIAR)
Time Latitude Longitude Altitude Speed Heading
2026-05-09 15:06 64.13171 -21.94471 16 ft 0 kts 83°
2026-05-09 15:17 64.13169 -21.94443 16 ft 2 kts 98°
2026-05-09 15:18 64.13162 -21.94410 17 ft 2 kts 134°
2026-05-09 15:18 64.13150 -21.94382 17 ft 2 kts 134°
2026-05-09 15:18 64.13135 -21.94332 18 ft 6 kts 108°
2026-05-09 15:18 64.13135 -21.94235 19 ft 5 kts 84°
2026-05-09 15:19 64.13138 -21.94167 21 ft 3 kts 82°
2026-05-09 15:19 64.13143 -21.94092 22 ft 5 kts 82°
2026-05-09 15:19 64.13147 -21.94021 24 ft 3 kts 83°
2026-05-09 15:19 64.13153 -21.93893 26 ft 11 kts 83°
2026-05-09 15:20 64.13132 -21.93752 30 ft 7 kts 113°
2026-05-09 15:20 64.13180 -21.93575 37 ft 6 kts 31°
2026-05-09 15:20 64.13235 -21.93574 38 ft 8 kts 354°
2026-05-09 15:21 64.13300 -21.93585 40 ft 10 kts 354°
2026-05-09 15:21 64.13348 -21.93596 41 ft 10 kts 356°
2026-05-09 15:21 64.13403 -21.93605 43 ft 11 kts 356°
2026-05-09 15:21 64.13480 -21.93617 45 ft 6 kts 355°
2026-05-09 15:22 64.13530 -21.93630 46 ft 6 kts 352°
2026-05-09 15:22 64.13568 -21.93661 46 ft 0 kts 325°
2026-05-09 15:26 64.13589 -21.93704 46 ft 8 kts 313°
2026-05-09 15:26 64.13623 -21.93793 45 ft 6 kts 309°
2026-05-09 15:27 64.13645 -21.93879 43 ft 7 kts 292°
2026-05-09 15:27 64.13637 -21.93899 42 ft 2 kts 165°
2026-05-09 15:27 64.13621 -21.93894 42 ft 1 kts 174°
2026-05-09 15:27 64.13618 -21.93893 42 ft 0 kts 174°
2026-05-09 15:28 64.13602 -21.93890 41 ft 0 kts 174°
2026-05-09 15:28 64.13426 -21.93856 38 ft 73 kts 175°
2026-05-09 15:28 64.12630 -21.93707 26 ft 146 kts 179°
2026-05-09 15:29 64.11580 -21.93601 527 ft 155 kts 183°
2026-05-09 15:29 64.10463 -21.93567 1096 ft 171 kts 182°
2026-05-09 15:29 64.09234 -21.93487 1666 ft 180 kts 181°
2026-05-09 15:29 64.08034 -21.93368 2125 ft 168 kts 181°
2026-05-09 15:30 64.06898 -21.93227 2471 ft 163 kts 178°
2026-05-09 15:30 64.05856 -21.92136 2770 ft 178 kts 135°
2026-05-09 15:30 64.05341 -21.89543 3151 ft 185 kts 92°
2026-05-09 15:30 64.05674 -21.86772 3572 ft 185 kts 52°
2026-05-09 15:31 64.06475 -21.84514 4055 ft 186 kts 47°
2026-05-09 15:31 64.07311 -21.82267 4542 ft 186 kts 36°
2026-05-09 15:31 64.08390 -21.80770 5036 ft 184 kts 29°
2026-05-09 15:31 64.09280 -21.78638 5526 ft 190 kts 45°
2026-05-09 15:32 64.10112 -21.76323 6048 ft 191 kts 46°
2026-05-09 15:32 64.10895 -21.73825 6558 ft 193 kts 49°
2026-05-09 15:32 64.11642 -21.71311 7062 ft 194 kts 49°
2026-05-09 15:32 64.12392 -21.68737 7565 ft 196 kts 49°
2026-05-09 15:33 64.13152 -21.66122 8139 ft 203 kts 49°
2026-05-09 15:33 64.13927 -21.63377 8775 ft 208 kts 49°
2026-05-09 15:33 64.14709 -21.60583 9419 ft 212 kts 50°
2026-05-09 15:33 64.15505 -21.57712 10004 ft 218 kts 49°
2026-05-09 15:34 64.16302 -21.54786 10618 ft 222 kts 50°
2026-05-09 15:34 64.17129 -21.51760 11266 ft 223 kts 49°
2026-05-09 15:34 64.17963 -21.48716 11826 ft 230 kts 50°
2026-05-09 15:34 64.18799 -21.45621 12434 ft 233 kts 49°
2026-05-09 15:35 64.19643 -21.42462 12993 ft 235 kts 49°
2026-05-09 15:35 64.20489 -21.39277 13506 ft 238 kts 49°
2026-05-09 15:35 64.21344 -21.36043 14153 ft 238 kts 49°
2026-05-09 15:35 64.22207 -21.32752 14682 ft 243 kts 49°
2026-05-09 15:36 64.23067 -21.29473 15269 ft 243 kts 49°
2026-05-09 15:36 64.23926 -21.26168 15820 ft 244 kts 50°
2026-05-09 15:36 64.24805 -21.22800 16324 ft 248 kts 49°
2026-05-09 15:36 64.25681 -21.19413 16758 ft 254 kts 49°
2026-05-09 15:37 64.26623 -21.15833 16920 ft 269 kts 50°
2026-05-09 15:37 64.27649 -21.12098 16949 ft 286 kts 46°
2026-05-09 15:37 64.28998 -21.08652 16978 ft 296 kts 39°
2026-05-09 15:37 64.30292 -21.04786 16980 ft 315 kts 47°
2026-05-09 15:38 64.31574 -21.00568 16964 ft 327 kts 47°
2026-05-09 15:38 64.32887 -20.96233 16952 ft 336 kts 47°
2026-05-09 15:38 64.34245 -20.91753 16943 ft 344 kts 47°
2026-05-09 15:38 64.35609 -20.87272 16936 ft 349 kts 47°
2026-05-09 15:39 64.37015 -20.82658 16930 ft 352 kts 47°
2026-05-09 15:39 64.38399 -20.78124 16916 ft 344 kts 47°
2026-05-09 15:39 64.39758 -20.73660 16906 ft 334 kts 47°
2026-05-09 15:39 64.41071 -20.69306 16902 ft 326 kts 47°
2026-05-09 15:40 64.42329 -20.65075 16903 ft 320 kts 47°
2026-05-09 15:40 64.43583 -20.60861 16905 ft 315 kts 47°
2026-05-09 15:40 64.44807 -20.56699 16911 ft 310 kts 47°
2026-05-09 15:40 64.45998 -20.52623 16923 ft 306 kts 47°
2026-05-09 15:41 64.47189 -20.48554 16930 ft 303 kts 47°
2026-05-09 15:41 64.48349 -20.44573 16931 ft 301 kts 47°
2026-05-09 15:41 64.49509 -20.40559 16931 ft 298 kts 47°
2026-05-09 15:41 64.50652 -20.36567 16910 ft 298 kts 47°
2026-05-09 15:42 64.51798 -20.32557 16915 ft 296 kts 47°
2026-05-09 15:42 64.52911 -20.28619 16917 ft 294 kts 48°
2026-05-09 15:42 64.54037 -20.24640 16899 ft 292 kts 47°
2026-05-09 15:42 64.55167 -20.20739 16904 ft 289 kts 46°
2026-05-09 15:43 64.56326 -20.17006 16903 ft 288 kts 45°
2026-05-09 15:43 64.57507 -20.13229 16889 ft 288 kts 44°
2026-05-09 15:43 64.58666 -20.09504 16884 ft 287 kts 45°
2026-05-09 15:43 64.59840 -20.05740 16882 ft 287 kts 44°
2026-05-09 15:44 64.61062 -20.02145 16868 ft 281 kts 37°
2026-05-09 15:44 64.62436 -19.98957 16869 ft 277 kts 34°
2026-05-09 15:44 64.63806 -19.95855 16860 ft 278 kts 34°
2026-05-09 15:44 64.65188 -19.92710 16899 ft 275 kts 34°
2026-05-09 15:45 64.66529 -19.89628 17041 ft 270 kts 34°
2026-05-09 15:45 64.67865 -19.86560 17084 ft 270 kts 34°
2026-05-09 15:45 64.69187 -19.83510 17089 ft 270 kts 35°
2026-05-09 15:45 64.70525 -19.80412 17086 ft 271 kts 34°
2026-05-09 15:46 64.71864 -19.77303 17100 ft 271 kts 34°
2026-05-09 15:46 64.73196 -19.74201 17093 ft 272 kts 34°
2026-05-09 15:46 64.74515 -19.71122 17093 ft 273 kts 34°
2026-05-09 15:46 64.75861 -19.67962 17117 ft 274 kts 35°
2026-05-09 15:47 64.77215 -19.64797 17124 ft 275 kts 34°
2026-05-09 15:47 64.78558 -19.61644 17156 ft 275 kts 35°
2026-05-09 15:47 64.79913 -19.58447 17139 ft 275 kts 35°
2026-05-09 15:47 64.81260 -19.55263 17149 ft 275 kts 33°
2026-05-09 15:48 64.82600 -19.52111 17164 ft 276 kts 34°
2026-05-09 15:48 64.83957 -19.48904 17176 ft 276 kts 35°
2026-05-09 15:48 64.85306 -19.45705 17179 ft 277 kts 35°
2026-05-09 15:48 64.86667 -19.42474 17185 ft 278 kts 35°
2026-05-09 15:49 64.88019 -19.39261 17179 ft 279 kts 34°
2026-05-09 15:49 64.89384 -19.36013 17179 ft 281 kts 35°
2026-05-09 15:49 64.90749 -19.32760 17177 ft 281 kts 36°
2026-05-09 15:49 64.92120 -19.29486 17174 ft 282 kts 36°
2026-05-09 15:50 64.93501 -19.26181 17170 ft 282 kts 36°
2026-05-09 15:50 64.94877 -19.22884 17166 ft 282 kts 36°
2026-05-09 15:50 64.96244 -19.19606 17166 ft 283 kts 35°
2026-05-09 15:50 64.97628 -19.16279 17164 ft 283 kts 36°
2026-05-09 15:51 64.99004 -19.12967 17164 ft 283 kts 36°
2026-05-09 15:51 65.00372 -19.09673 17002 ft 290 kts 36°
2026-05-09 15:51 65.01820 -19.06202 16580 ft 300 kts 36°
2026-05-09 15:51 65.03272 -19.02686 16222 ft 299 kts 37°
2026-05-09 15:52 65.06160 -18.95674 15431 ft 300 kts 37°
2026-05-09 15:52 65.07617 -18.92131 14999 ft 301 kts 38°
2026-05-09 15:52 65.09082 -18.88560 14581 ft 301 kts 38°
2026-05-09 15:53 65.10527 -18.85034 14159 ft 301 kts 38°
2026-05-09 15:53 65.11987 -18.81463 13747 ft 301 kts 38°
2026-05-09 15:53 65.13440 -18.77907 13311 ft 301 kts 39°
2026-05-09 15:53 65.14877 -18.74384 12882 ft 300 kts 39°
2026-05-09 15:54 65.16329 -18.70817 12411 ft 301 kts 39°
2026-05-09 15:54 65.17773 -18.67269 11912 ft 302 kts 39°
2026-05-09 15:54 65.19238 -18.63659 11307 ft 307 kts 40°
2026-05-09 15:54 65.20722 -18.60004 10606 ft 312 kts 40°
2026-05-09 15:55 65.22218 -18.56304 10155 ft 308 kts 40°
2026-05-09 15:55 65.23676 -18.52684 9780 ft 302 kts 40°
2026-05-09 15:55 65.25120 -18.49094 9439 ft 296 kts 40°
2026-05-09 15:55 65.26515 -18.45626 9135 ft 291 kts 41°
2026-05-09 15:56 65.27895 -18.42194 8841 ft 278 kts 40°
2026-05-09 15:56 65.29182 -18.38990 8571 ft 262 kts 40°
2026-05-09 15:56 65.30400 -18.35936 8310 ft 248 kts 42°
2026-05-09 15:56 65.31474 -18.32831 8066 ft 236 kts 47°
2026-05-09 15:57 65.32434 -18.29860 7832 ft 222 kts 47°
2026-05-09 15:57 65.33272 -18.27256 7635 ft 208 kts 47°
2026-05-09 15:57 65.34183 -18.24420 7413 ft 189 kts 47°
2026-05-09 15:57 65.34955 -18.22019 7214 ft 178 kts 47°
2026-05-09 15:58 65.35733 -18.19593 7066 ft 194 kts 47°
2026-05-09 15:58 65.36588 -18.16938 6856 ft 212 kts 48°
2026-05-09 15:58 65.37530 -18.14004 6610 ft 230 kts 49°
2026-05-09 15:58 65.38490 -18.10818 6396 ft 244 kts 51°
2026-05-09 15:59 65.39473 -18.07510 6205 ft 237 kts 48°
2026-05-09 15:59 65.40743 -18.05469 5967 ft 207 kts
2026-05-09 15:59 65.42077 -18.05337 5786 ft 185 kts 352°
2026-05-09 15:59 65.43296 -18.05435 5574 ft 167 kts 355°
2026-05-09 16:00 65.44391 -18.05461 5364 ft 148 kts 354°
2026-05-09 16:00 65.45040 -18.05491 5192 ft 137 kts 354°
2026-05-09 16:00 65.46323 -18.05595 4575 ft 153 kts 356°
2026-05-09 16:00 65.47417 -18.05633 4782 ft 165 kts 357°
2026-05-09 16:01 65.48618 -18.05699 4737 ft 177 kts 355°
2026-05-09 16:01 65.49847 -18.05811 4719 ft 179 kts 355°
2026-05-09 16:01 65.51102 -18.05916 4710 ft 176 kts 356°
2026-05-09 16:01 65.52251 -18.06007 4559 ft 161 kts 355°
2026-05-09 16:02 65.53368 -18.06104 4113 ft 162 kts 355°
2026-05-09 16:02 65.55489 -18.06270 3190 ft 146 kts 356°
2026-05-09 16:02 65.56451 -18.06341 2842 ft 132 kts 356°
2026-05-09 16:03 65.57358 -18.06403 2528 ft 129 kts 357°
2026-05-09 16:03 65.58249 -18.06351 2236 ft 130 kts 358°
2026-05-09 16:03 65.59150 -18.06472 1992 ft 128 kts 356°
2026-05-09 16:03 65.60043 -18.06579 1719 ft 132 kts 358°
2026-05-09 16:04 65.60992 -18.06651 1395 ft 141 kts 359°
2026-05-09 16:04 65.62001 -18.06731 1035 ft 153 kts 358°
2026-05-09 16:04 65.63077 -18.06820 613 ft 157 kts 359°
2026-05-09 16:04 65.64150 -18.06908 216 ft 151 kts 356°
2026-05-09 16:05 65.65174 -18.07087 174 ft 155 kts 359°
2026-05-09 16:05 65.66222 -18.07149 1053 ft 156 kts 359°
2026-05-09 16:05 65.67303 -18.07176 1892 ft 166 kts
2026-05-09 16:05 65.68459 -18.07365 2703 ft 169 kts 347°
2026-05-09 16:06 65.69546 -18.08289 3489 ft 168 kts 342°
2026-05-09 16:06 65.70660 -18.09036 4278 ft 168 kts 344°
2026-05-09 16:06 65.71757 -18.09755 5055 ft 167 kts 342°
2026-05-09 16:06 65.72866 -18.10492 5837 ft 167 kts 341°
2026-05-09 16:07 65.73975 -18.11239 6548 ft 172 kts 340°
2026-05-09 16:07 65.75207 -18.12092 6656 ft 196 kts 340°
2026-05-09 16:07 65.76575 -18.13065 6489 ft 217 kts 340°
2026-05-09 16:07 65.78073 -18.14130 6150 ft 224 kts 341°
2026-05-09 16:08 65.79539 -18.15180 5856 ft 215 kts 341°
2026-05-09 16:08 65.80930 -18.16165 5609 ft 204 kts 341°
2026-05-09 16:08 65.82233 -18.17085 5500 ft 186 kts 341°
2026-05-09 16:08 65.83399 -18.17906 5458 ft 166 kts 341°
2026-05-09 16:09 65.84544 -18.18699 5478 ft 176 kts 341°
2026-05-09 16:09 65.85765 -18.19540 5489 ft 187 kts 341°
2026-05-09 16:09 65.87045 -18.20424 5492 ft 197 kts 341°
2026-05-09 16:09 65.88390 -18.21352 5492 ft 206 kts 342°
2026-05-09 16:10 65.89796 -18.22324 5486 ft 215 kts 342°
2026-05-09 16:10 65.91266 -18.23339 5487 ft 223 kts 342°
2026-05-09 16:10 65.92809 -18.23728 5466 ft 232 kts
2026-05-09 16:10 65.94192 -18.21656 5473 ft 242 kts 49°
2026-05-09 16:11 65.94750 -18.17783 5468 ft 248 kts 89°
2026-05-09 16:11 65.94224 -18.13859 5453 ft 251 kts 128°
2026-05-09 16:11 65.92813 -18.11492 5432 ft 248 kts 166°
2026-05-09 16:11 65.91759 -18.11169 5463 ft 246 kts 180°
2026-05-09 16:12 65.91456 -18.11157 5462 ft 246 kts 182°
2026-05-09 16:12 65.89737 -18.11293 5449 ft 249 kts 184°
2026-05-09 16:12 65.87994 -18.11282 5442 ft 251 kts 181°
2026-05-09 16:12 65.86251 -18.11130 5437 ft 253 kts 179°
2026-05-09 16:13 65.84480 -18.10876 5438 ft 255 kts 178°
2026-05-09 16:13 65.82705 -18.10550 5439 ft 256 kts 178°
2026-05-09 16:13 65.80949 -18.10177 5449 ft 256 kts 177°
2026-05-09 16:13 65.79170 -18.09761 5447 ft 257 kts 177°
2026-05-09 16:14 65.77387 -18.09317 5447 ft 258 kts 176°
2026-05-09 16:14 65.75616 -18.08789 5437 ft 259 kts 172°
2026-05-09 16:14 65.73908 -18.07507 5445 ft 261 kts 161°
2026-05-09 16:14 65.72223 -18.05994 5427 ft 250 kts 161°
2026-05-09 16:15 65.70681 -18.04520 5404 ft 227 kts 159°
2026-05-09 16:15 65.69179 -18.03058 5418 ft 235 kts 160°
2026-05-09 16:15 65.67666 -18.01615 5425 ft 235 kts 161°
2026-05-09 16:15 65.66113 -18.00351 5416 ft 233 kts 173°
2026-05-09 16:16 65.64557 -18.00699 5433 ft 225 kts 199°
2026-05-09 16:16 65.63065 -18.01836 5434 ft 226 kts 200°
2026-05-09 16:16 65.61601 -18.03097 5432 ft 225 kts 208°
2026-05-09 16:16 65.60211 -18.04796 5423 ft 225 kts 211°
2026-05-09 16:17 65.58791 -18.06571 5351 ft 230 kts 210°
2026-05-09 16:17 65.57375 -18.08336 5238 ft 234 kts 210°
2026-05-09 16:17 65.55920 -18.10141 5119 ft 232 kts 210°
2026-05-09 16:17 65.54527 -18.11866 4979 ft 224 kts 210°
2026-05-09 16:18 65.53152 -18.13581 4836 ft 218 kts 210°
2026-05-09 16:18 65.51838 -18.15221 4760 ft 209 kts 210°
2026-05-09 16:18 65.50509 -18.16383 4740 ft 201 kts 193°
2026-05-09 16:18 65.49161 -18.16777 4720 ft 191 kts 186°
2026-05-09 16:19 65.47825 -18.16692 4719 ft 194 kts 174°
2026-05-09 16:19 65.46616 -18.15341 4712 ft 198 kts 136°
2026-05-09 16:19 65.45960 -18.12506 4710 ft 198 kts 101°
2026-05-09 16:19 65.46059 -18.09259 4700 ft 196 kts 64°
2026-05-09 16:20 65.46914 -18.06842 4694 ft 187 kts 27°
2026-05-09 16:20 65.48060 -18.05999 4662 ft 159 kts 360°
2026-05-09 16:20 65.49135 -18.05952 4723 ft 159 kts 356°
2026-05-09 16:20 65.50343 -18.05923 4736 ft 185 kts 358°
2026-05-09 16:21 65.51660 -18.05940 4688 ft 189 kts 356°
2026-05-09 16:21 65.52963 -18.06046 4332 ft 189 kts 355°
2026-05-09 16:21 65.54260 -18.06162 3772 ft 185 kts 356°
2026-05-09 16:21 65.55524 -18.06261 3267 ft 182 kts 356°
2026-05-09 16:22 65.56761 -18.06352 2785 ft 174 kts 357°
2026-05-09 16:22 65.57938 -18.06410 2341 ft 167 kts 357°
2026-05-09 16:22 65.59054 -18.06469 1951 ft 157 kts 358°
2026-05-09 16:22 65.60120 -18.06567 1566 ft 146 kts 356°
2026-05-09 16:23 65.61089 -18.06709 1240 ft 136 kts 358°
2026-05-09 16:23 65.61994 -18.06756 894 ft 127 kts 359°
2026-05-09 16:23 65.62839 -18.06804 621 ft 119 kts 359°
2026-05-09 16:23 65.63650 -18.06884 390 ft 118 kts 358°
2026-05-09 16:24 65.64448 -18.06974 113 ft 114 kts 356°
2026-05-09 16:24 65.65228 -18.07114 -7 ft 109 kts 354°
2026-05-09 16:24 65.65819 -18.07224 -23 ft 58 kts 353°
2026-05-09 16:24 65.66110 -18.07285 -27 ft 33 kts 356°
2026-05-09 16:25 65.66196 -18.07293 -28 ft 7 kts 24°
2026-05-09 16:25 65.66240 -18.07274 -28 ft 8 kts 332°
2026-05-09 16:25 65.66206 -18.07302 -28 ft 13 kts 172°
2026-05-09 16:25 65.66108 -18.07275 -26 ft 14 kts 176°
2026-05-09 16:26 65.65976 -18.07255 -24 ft 21 kts 175°
2026-05-09 16:26 65.65835 -18.07230 -23 ft 19 kts 175°
2026-05-09 16:26 65.65707 -18.07204 -22 ft 17 kts 176°
2026-05-09 16:26 65.65593 -18.07185 -19 ft 15 kts 176°
2026-05-09 16:27 65.65520 -18.07174 -18 ft 8 kts 177°
2026-05-09 16:27 65.65482 -18.07227 -15 ft 4 kts 259°
2026-05-09 16:27 65.65478 -18.07297 -12 ft 9 kts 263°
2026-05-09 16:27 65.65473 -18.07424 -8 ft 6 kts 267°
2026-05-09 16:28 65.65480 -18.07486 -7 ft 3 kts 328°
2026-05-09 16:28 65.65485 -18.07490 -7 ft 0 kts 348°